• In Kazakhstan
  • List of Countries
  • For 7 days
  • Water Temperature
  • Satellite Maps
  • Weather Map
  • News
  • Weather Widgets
  • user-avatar
    Login

    Hourly Weather Pinsk

    Today, 22 October, Sunday

    Time Temperature Precipitation Wind Pressure Humidity
    00:00 +5°C° 0 mm 4 mps 750 mmHg 87%
    01:00 +4°C° 0 mm 4 mps 750 mmHg 87%
    02:00 +4°C° 0 mm 3 mps 751 mmHg 88%
    03:00 +3°C° 0 mm 3 mps 751 mmHg 89%
    04:00 +3°C° 0 mm 3 mps 751 mmHg 90%
    05:00 +2°C° 0 mm 3 mps 751 mmHg 92%
    06:00 +2°C° 0 mm 3 mps 751 mmHg 91%
    07:00 +2°C° 0 mm 3 mps 752 mmHg 91%
    08:00 +2°C° 0 mm 3 mps 752 mmHg 90%
    09:00 +3°C° 0 mm 3 mps 752 mmHg 84%
    10:00 +4°C° 0 mm 3 mps 752 mmHg 77%
    11:00 +7°C° 0 mm 3 mps 752 mmHg 70%
    12:00 +7°C° 0 mm 3 mps 752 mmHg 67%
    13:00 +8°C° 0 mm 3 mps 752 mmHg 63%
    14:00 +9°C° 0 mm 3 mps 752 mmHg 60%
    15:00 +8°C° 0 mm 3 mps 752 mmHg 64%
    16:00 +7°C° 0 mm 3 mps 751 mmHg 68%
    17:00 +6°C° 0 mm 2 mps 751 mmHg 72%
    18:00 +4°C° 0 mm 3 mps 751 mmHg 73%
    19:00 +4°C° 0 mm 3 mps 751 mmHg 75%
    20:00 +3°C° 0 mm 3 mps 751 mmHg 77%
    21:00 +3°C° 0 mm 3 mps 751 mmHg 77%
    22:00 +3°C° 0 mm 3 mps 751 mmHg 77%
    23:00 +3°C° 0 mm 3 mps 751 mmHg 77%

    Tomorrow, 23 October, Monday

    Time Temperature Precipitation Wind Pressure Humidity
    00:00 +3°C° 0 mm 3 mps 751 mmHg 76%
    01:00 +3°C° 0 mm 3 mps 751 mmHg 76%
    02:00 +4°C° 0 mm 4 mps 750 mmHg 75%
    03:00 +4°C° 0 mm 4 mps 750 mmHg 76%
    04:00 +4°C° 0 mm 4 mps 750 mmHg 76%
    05:00 +3°C° 0 mm 4 mps 750 mmHg 77%
    06:00 +3°C° 0 mm 4 mps 750 mmHg 76%
    07:00 +3°C° 0 mm 4 mps 750 mmHg 75%
    08:00 +3°C° 0 mm 4 mps 750 mmHg 74%
    09:00 +4°C° 0 mm 4 mps 750 mmHg 71%
    10:00 +5°C° 0 mm 4 mps 749 mmHg 68%
    11:00 +6°C° 0 mm 4 mps 749 mmHg 64%
    12:00 +6°C° 0.1 mm 4 mps 749 mmHg 63%
    13:00 +7°C° 0.1 mm 4 mps 749 mmHg 61%
    14:00 +7°C° 0.1 mm 4 mps 749 mmHg 60%
    15:00 +7°C° 0.1 mm 4 mps 749 mmHg 61%
    16:00 +6°C° 0.1 mm 4 mps 750 mmHg 63%
    17:00 +6°C° 0.1 mm 4 mps 750 mmHg 65%
    18:00 +5°C° 0.2 mm 4 mps 750 mmHg 66%
    19:00 +5°C° 0.2 mm 4 mps 750 mmHg 67%
    20:00 +5°C° 0.2 mm 4 mps 750 mmHg 68%
    21:00 +4°C° 0.2 mm 4 mps 751 mmHg 69%
    22:00 +4°C° 0.2 mm 4 mps 751 mmHg 70%
    23:00 +4°C° 0.2 mm 4 mps 752 mmHg 72%

    Day after tomorrow, 24 October, Tuesday

    Time Temperature Precipitation Wind Pressure Humidity
    00:00 +4°C° 0.1 mm 4 mps 752 mmHg 72%
    01:00 +3°C° 0.1 mm 4 mps 752 mmHg 73%
    02:00 +3°C° 0.1 mm 4 mps 752 mmHg 73%
    03:00 +3°C° 0.1 mm 4 mps 753 mmHg 72%
    04:00 +3°C° 0.1 mm 4 mps 753 mmHg 70%
    05:00 +3°C° 0.1 mm 4 mps 753 mmHg 69%
    06:00 +3°C° 0 mm 4 mps 754 mmHg 68%
    07:00 +1°C° 0 mm 4 mps 754 mmHg 67%
    08:00 +1°C° 0 mm 4 mps 755 mmHg 66%
    09:00 +3°C° 0 mm 4 mps 755 mmHg 62%
    10:00 +4°C° 0 mm 3 mps 756 mmHg 58%
    11:00 +5°C° 0 mm 3 mps 756 mmHg 55%
    12:00 +5°C° 0 mm 3 mps 756 mmHg 52%
    13:00 +7°C° 0 mm 3 mps 756 mmHg 49%
    14:00 +8°C° 0 mm 3 mps 756 mmHg 47%
    15:00 +5°C° 0 mm 3 mps 757 mmHg 51%
    16:00 +4°C° 0 mm 3 mps 757 mmHg 55%
    17:00 +4°C° 0 mm 2 mps 757 mmHg 60%
    18:00 +4°C° 0 mm 2 mps 757 mmHg 62%
    19:00 +3°C° 0 mm 2 mps 758 mmHg 64%
    20:00 +2°C° 0 mm 2 mps 758 mmHg 66%
    21:00 +2°C° 0 mm 2 mps 758 mmHg 67%
    22:00 +2°C° 0 mm 2 mps 758 mmHg 68%
    23:00 +1°C° 0 mm 2 mps 759 mmHg 69%

    25 October, Wednesday

    Time Temperature Precipitation Wind Pressure Humidity
    00:00 +1°C° 0 mm 2 mps 759 mmHg 71%
    01:00 +1°C° 0 mm 2 mps 759 mmHg 72%
    02:00 +1°C° 0 mm 1 mps 759 mmHg 73%
    03:00 -1°C° 0 mm 2 mps 759 mmHg 74%
    04:00 -1°C° 0 mm 2 mps 759 mmHg 74%
    05:00 -1°C° 0 mm 2 mps 759 mmHg 75%
    06:00 -1°C° 0 mm 2 mps 759 mmHg 74%
    07:00 -1°C° 0 mm 2 mps 759 mmHg 73%
    08:00 -1°C° 0 mm 2 mps 759 mmHg 72%
    09:00 +2°C° 0 mm 2 mps 759 mmHg 65%
    10:00 +4°C° 0 mm 2 mps 759 mmHg 59%
    11:00 +5°C° 0 mm 2 mps 759 mmHg 52%
    12:00 +6°C° 0 mm 2 mps 759 mmHg 50%
    13:00 +7°C° 0 mm 2 mps 758 mmHg 47%
    14:00 +7°C° 0 mm 2 mps 758 mmHg 45%
    15:00 +6°C° 0 mm 2 mps 758 mmHg 49%
    16:00 +5°C° 0 mm 2 mps 757 mmHg 54%
    17:00 +4°C° 0 mm 2 mps 757 mmHg 58%
    18:00 +3°C° 0 mm 3 mps 757 mmHg 59%
    19:00 +3°C° 0 mm 3 mps 757 mmHg 59%
    20:00 +3°C° 0 mm 4 mps 756 mmHg 60%
    21:00 +3°C° 0.3 mm 4 mps 756 mmHg 62%
    22:00 +2°C° 0.3 mm 5 mps 755 mmHg 64%
    23:00 +3°C° 0.3 mm 5 mps 755 mmHg 67%

    26 October, Thursday

    Time Temperature Precipitation Wind Pressure Humidity
    00:00 +3°C° 0.4 mm 5 mps 754 mmHg 71%
    01:00 +3°C° 0.4 mm 6 mps 753 mmHg 75%
    02:00 +3°C° 0.4 mm 6 mps 752 mmHg 79%
    03:00 +4°C° 0.7 mm 6 mps 751 mmHg 82%
    04:00 +4°C° 0.7 mm 6 mps 751 mmHg 85%
    05:00 +5°C° 0.7 mm 6 mps 750 mmHg 88%
    06:00 +7°C° 0.2 mm 5 mps 750 mmHg 90%
    07:00 +8°C° 0.2 mm 5 mps 750 mmHg 92%
    08:00 +10°C° 0.2 mm 4 mps 750 mmHg 94%
    09:00 +10°C° 0 mm 5 mps 750 mmHg 89%
    10:00 +12°C° 0 mm 5 mps 750 mmHg 83%
    11:00 +13°C° 0 mm 5 mps 750 mmHg 77%
    12:00 +13°C° 0.1 mm 5 mps 750 mmHg 77%
    13:00 +13°C° 0.1 mm 5 mps 750 mmHg 76%
    14:00 +13°C° 0.1 mm 5 mps 750 mmHg 76%
    15:00 +12°C° 0.2 mm 5 mps 750 mmHg 78%
    16:00 +12°C° 0.2 mm 5 mps 750 mmHg 81%
    17:00 +10°C° 0.2 mm 5 mps 750 mmHg 83%
    18:00 +9°C° 0 mm 5 mps 750 mmHg 82%
    19:00 +9°C° 0 mm 5 mps 750 mmHg 81%
    20:00 +9°C° 0 mm 5 mps 749 mmHg 80%
    21:00 +9°C° 0 mm 5 mps 749 mmHg 81%
    22:00 +8°C° 0 mm 5 mps 749 mmHg 82%
    23:00 +8°C° 0 mm 5 mps 749 mmHg 83%

    27 October, Friday

    Time Temperature Precipitation Wind Pressure Humidity
    00:00 +8°C° 0 mm 5 mps 749 mmHg 84%
    01:00 +8°C° 0 mm 5 mps 748 mmHg 85%
    02:00 +8°C° 0 mm 5 mps 748 mmHg 86%
    03:00 +8°C° 0 mm 5 mps 748 mmHg 86%
    04:00 +8°C° 0 mm 5 mps 747 mmHg 85%
    05:00 +8°C° 0 mm 4 mps 746 mmHg 85%
    06:00 +8°C° 0.1 mm 4 mps 746 mmHg 86%
    07:00 +7°C° 0.1 mm 4 mps 745 mmHg 87%
    08:00 +7°C° 0.1 mm 4 mps 745 mmHg 89%
    09:00 +8°C° 0.6 mm 4 mps 744 mmHg 89%
    10:00 +8°C° 0.6 mm 4 mps 743 mmHg 89%
    11:00 +8°C° 0.6 mm 5 mps 743 mmHg 89%
    12:00 +8°C° 0.5 mm 4 mps 742 mmHg 88%
    13:00 +8°C° 0.5 mm 4 mps 741 mmHg 88%
    14:00 +8°C° 0.5 mm 4 mps 741 mmHg 87%
    15:00 +8°C° 0.2 mm 4 mps 740 mmHg 87%
    16:00 +8°C° 0.2 mm 4 mps 740 mmHg 88%
    17:00 +7°C° 0.2 mm 4 mps 739 mmHg 88%
    18:00 +7°C° 0.4 mm 4 mps 739 mmHg 88%
    19:00 +7°C° 0.4 mm 4 mps 739 mmHg 89%
    20:00 +7°C° 0.4 mm 5 mps 738 mmHg 89%
    21:00 +7°C° 0.2 mm 5 mps 738 mmHg 89%
    22:00 +7°C° 0.2 mm 5 mps 738 mmHg 89%
    23:00 +7°C° 0.2 mm 5 mps 738 mmHg 88%
    Show more